owner,sensor,date,latitude,longitude,vertical_datum,direction_of_sea_water_velocity,sea_water_speed,upward_sea_water_velocity,qcFlag 
TABS,ioos:station:wmo:42050:1,2012-11-01T03:00:00Z,28.8425,-94.2433,2.0,98.60067354,6.887452359,-99999.0,'11133222,11111222,99999999' 
TABS,ioos:station:wmo:42050:1,2012-11-01T03:30:00Z,28.8425,-94.2433,2.0,87.6847255,11.13909332,-99999.0,'11111222,11111222,99999999' 
TABS,ioos:station:wmo:42050:1,2012-11-01T04:00:00Z,28.8425,-94.2433,2.0,81.26304828,9.480005274,-99999.0,'11133222,11111222,99999999' 
TABS,ioos:station:wmo:42050:1,2012-11-01T04:30:00Z,28.8425,-94.2433,2.0,76.62288527,8.64454163,-99999.0,'11133222,11111222,99999999' 
TABS,ioos:station:wmo:42050:1,2012-11-01T05:00:00Z,28.8425,-94.2433,2.0,69.94601516,8.282149479,-99999.0,'11133222,11111222,99999999' 
TABS,ioos:station:wmo:42050:1,2012-11-01T05:30:00Z,28.8425,-94.2433,2.0,68.36532735,9.574492154,-99999.0,'11133222,11111222,99999999' 
TABS,ioos:station:wmo:42050:1,2012-11-01T06:00:00Z,28.8425,-94.2433,2.0,77.97775143,8.833753449,-99999.0,'11133222,11111222,99999999' 
TABS,ioos:station:wmo:42050:1,2012-11-01T06:30:00Z,28.8425,-94.2433,2.0,74.49300809,12.56748583,-99999.0,'11111222,11111222,99999999' 
TABS,ioos:station:wmo:42050:1,2012-11-01T07:00:00Z,28.8425,-94.2433,2.0,78.54355812,9.968615751,-99999.0,'11133222,11111222,99999999' 
TABS,ioos:station:wmo:42050:1,2012-11-01T07:30:00Z,28.8425,-94.2433,2.0,78.48862716,12.8280357,-99999.0,'11111222,11111222,99999999' 
TABS,ioos:station:wmo:42050:1,2012-11-01T08:00:00Z,28.8425,-94.2433,2.0,94.35696482,10.53043209,-99999.0,'11111222,11111222,99999999' 
TABS,ioos:station:wmo:42050:1,2012-11-01T08:30:00Z,28.8425,-94.2433,2.0,92.13009948,9.416506783,-99999.0,'11133222,11111222,99999999' 
TABS,ioos:station:wmo:42050:1,2012-11-01T09:00:00Z,28.8425,-94.2433,2.0,97.40689481,10.08414597,-99999.0,'11111222,11111222,99999999' 
TABS,ioos:station:wmo:42050:1,2012-11-01T09:30:00Z,28.8425,-94.2433,2.0,112.4890536,9.437716885,-99999.0,'11133222,11111222,99999999' 
TABS,ioos:station:wmo:42050:1,2012-11-01T10:00:00Z,28.8425,-94.2433,2.0,118.7410511,12.24906935,-99999.0,'11111222,11111222,99999999' 
TABS,ioos:station:wmo:42050:1,2012-11-01T10:30:00Z,28.8425,-94.2433,2.0,127.0318156,10.61004241,-99999.0,'11111222,11111222,99999999' 
TABS,ioos:station:wmo:42050:1,2012-11-01T11:00:00Z,28.8425,-94.2433,2.0,123.7449881,11.55718391,-99999.0,'11111222,11111222,99999999' 
TABS,ioos:station:wmo:42050:1,2012-11-01T11:30:00Z,28.8425,-94.2433,2.0,131.4428505,10.4853803,-99999.0,'11111222,11111222,99999999' 
TABS,ioos:station:wmo:42050:1,2012-11-01T12:00:00Z,28.8425,-94.2433,2.0,133.6815195,9.52725039,-99999.0,'11133222,11111222,99999999' 
TABS,ioos:station:wmo:42050:1,2012-11-01T12:30:00Z,28.8425,-94.2433,2.0,144.0425394,11.42744941,-99999.0,'11111222,11111222,99999999' 
TABS,ioos:station:wmo:42050:1,2012-11-01T13:00:00Z,28.8425,-94.2433,2.0,164.8176354,15.15908309,-99999.0,'11111222,11111222,99999999' 
TABS,ioos:station:wmo:42050:1,2012-11-01T13:30:00Z,28.8425,-94.2433,2.0,158.4905779,12.38232611,-99999.0,'11111222,11111222,99999999' 
TABS,ioos:station:wmo:42050:1,2012-11-01T14:00:00Z,28.8425,-94.2433,2.0,163.6080511,14.45763812,-99999.0,'11111222,11111222,99999999' 
TABS,ioos:station:wmo:42050:1,2012-11-01T14:30:00Z,28.8425,-94.2433,2.0,165.9635789,10.8437678,-99999.0,'11111222,11111222,99999999' 
TABS,ioos:station:wmo:42050:1,2012-11-01T15:00:00Z,28.8425,-94.2433,2.0,170.2254672,9.660227741,-99999.0,'11133222,11111222,99999999' 
TABS,ioos:station:wmo:42050:1,2012-11-01T15:30:00Z,28.8425,-94.2433,2.0,175.6999368,8.002524602,-99999.0,'11133222,11111222,99999999' 
TABS,ioos:station:wmo:42050:1,2012-11-01T16:00:00Z,28.8425,-94.2433,2.0,142.2687627,5.588631317,-99999.0,'11133222,11111222,99999999' 
TABS,ioos:station:wmo:42050:1,2012-11-01T16:30:00Z,28.8425,-94.2433,2.0,134.9998948,2.998132752,-99999.0,'11133222,11111222,99999999' 
TABS,ioos:station:wmo:42050:1,2012-11-01T17:00:00Z,28.8425,-94.2433,2.0,108.5660168,2.763837911,-99999.0,'11133222,11111222,99999999' 
TABS,ioos:station:wmo:42050:1,2012-11-01T17:30:00Z,28.8425,-94.2433,2.0,67.87371693,4.911720676,-99999.0,'11133222,11111222,99999999' 
TABS,ioos:station:wmo:42050:1,2012-11-01T18:00:00Z,28.8425,-94.2433,2.0,39.10019355,4.471386809,-99999.0,'11133222,11111222,99999999' 
TABS,ioos:station:wmo:42050:1,2012-11-01T18:30:00Z,28.8425,-94.2433,2.0,6.453262815,5.605515141,-99999.0,'11133222,11111222,99999999' 
TABS,ioos:station:wmo:42050:1,2012-11-01T19:00:00Z,28.8425,-94.2433,2.0,342.4341284,3.54532086,-99999.0,'11133222,11111222,99999999' 
TABS,ioos:station:wmo:42050:1,2012-11-01T19:30:00Z,28.8425,-94.2433,2.0,339.7246793,6.694833829,-99999.0,'11133222,11111222,99999999' 
TABS,ioos:station:wmo:42050:1,2012-11-01T20:00:00Z,28.8425,-94.2433,2.0,348.6241432,10.19020118,-99999.0,'11111222,11111222,99999999' 
TABS,ioos:station:wmo:42050:1,2012-11-01T20:30:00Z,28.8425,-94.2433,2.0,0.733874782,8.590704278,-99999.0,'11133222,11111222,99999999' 
TABS,ioos:station:wmo:42050:1,2012-11-01T21:00:00Z,28.8425,-94.2433,2.0,353.5477627,8.45354955,-99999.0,'11133222,11111222,99999999' 
TABS,ioos:station:wmo:42050:1,2012-11-01T21:30:00Z,28.8425,-94.2433,2.0,358.3439304,8.303469155,-99999.0,'11133222,11111222,99999999' 
TABS,ioos:station:wmo:42050:1,2012-11-01T22:00:00Z,28.8425,-94.2433,2.0,357.8442161,8.506021397,-99999.0,'11133222,11111222,99999999' 
TABS,ioos:station:wmo:42050:1,2012-11-01T22:30:00Z,28.8425,-94.2433,2.0,8.442830735,8.037095246,-99999.0,'11133222,11111222,99999999' 
TABS,ioos:station:wmo:42050:1,2012-11-01T23:00:00Z,28.8425,-94.2433,2.0,0.405980201,7.060177052,-99999.0,'11133222,11111222,99999999' 
TABS,ioos:station:wmo:42050:1,2012-11-01T23:30:00Z,28.8425,-94.2433,2.0,357.7563841,5.874504234,-99999.0,'11133222,11111222,99999999' 
TABS,ioos:station:wmo:42050:1,2012-11-02T00:00:00Z,28.8425,-94.2433,2.0,7.866260437,4.603314024,-99999.0,'11133222,11111222,99999999' 
TABS,ioos:station:wmo:42050:1,2012-11-02T00:30:00Z,28.8425,-94.2433,2.0,305.4959792,1.584455743,-99999.0,'11133222,11111222,99999999' 
TABS,ioos:station:wmo:42050:1,2012-11-02T01:00:00Z,28.8425,-94.2433,2.0,25.24415043,2.133775996,-99999.0,'11133222,11111222,99999999' 
TABS,ioos:station:wmo:42050:1,2012-11-02T01:30:00Z,28.8425,-94.2433,2.0,335.6746921,2.40337263,-99999.0,'11133222,11111222,99999999' 
TABS,ioos:station:wmo:42050:1,2012-11-02T02:00:00Z,28.8425,-94.2433,2.0,332.3311593,6.266625886,-99999.0,'11133222,11111222,99999999' 
TABS,ioos:station:wmo:42050:1,2012-11-02T02:30:00Z,28.8425,-94.2433,2.0,340.4226804,8.087552164,-99999.0,'11133222,11111222,99999999' 
TABS,ioos:station:wmo:42050:1,2012-11-02T03:00:00Z,28.8425,-94.2433,2.0,342.6140223,7.429434703,-99999.0,'11133222,11111222,99999999' 
TABS,ioos:station:wmo:42050:1,2012-11-02T03:30:00Z,28.8425,-94.2433,2.0,356.8203878,10.4560987,-99999.0,'11111222,11111222,99999999' 
TABS,ioos:station:wmo:42050:1,2012-11-02T04:00:00Z,28.8425,-94.2433,2.0,350.275554,11.12992812,-99999.0,'11111222,11111222,99999999' 
TABS,ioos:station:wmo:42050:1,2012-11-02T04:30:00Z,28.8425,-94.2433,2.0,350.3173122,14.09074164,-99999.0,'11111222,11111222,99999999' 
TABS,ioos:station:wmo:42050:1,2012-11-02T05:00:00Z,28.8425,-94.2433,2.0,347.7443747,10.92908047,-99999.0,'11111222,11111222,99999999' 
TABS,ioos:station:wmo:42050:1,2012-11-02T05:30:00Z,28.8425,-94.2433,2.0,359.5281222,13.35045318,-99999.0,'11111222,11144222,99999999' 
TABS,ioos:station:wmo:42050:1,2012-11-02T06:00:00Z,28.8425,-94.2433,2.0,0.976987463,13.49196057,-99999.0,'11111222,11111222,99999999' 
TABS,ioos:station:wmo:42050:1,2012-11-02T06:30:00Z,28.8425,-94.2433,2.0,6.464932103,12.70075982,-99999.0,'11111222,11111222,99999999' 
TABS,ioos:station:wmo:42050:1,2012-11-02T07:00:00Z,28.8425,-94.2433,2.0,1.985197718,9.815890179,-99999.0,'11133222,11111222,99999999' 
TABS,ioos:station:wmo:42050:1,2012-11-02T07:30:00Z,28.8425,-94.2433,2.0,21.32637901,7.836612789,-99999.0,'11133222,11111222,99999999' 
TABS,ioos:station:wmo:42050:1,2012-11-02T08:00:00Z,28.8425,-94.2433,2.0,44.22021267,6.753495391,-99999.0,'11133222,11111222,99999999' 
TABS,ioos:station:wmo:42050:1,2012-11-02T08:30:00Z,28.8425,-94.2433,2.0,52.67630203,6.564205969,-99999.0,'11133222,11111222,99999999' 
TABS,ioos:station:wmo:42050:1,2012-11-02T09:00:00Z,28.8425,-94.2433,2.0,79.15105231,4.14406805,-99999.0,'11133222,11111222,99999999' 
TABS,ioos:station:wmo:42050:1,2012-11-02T09:30:00Z,28.8425,-94.2433,2.0,83.44306883,4.378641342,-99999.0,'11133222,11111222,99999999' 
TABS,ioos:station:wmo:42050:1,2012-11-02T10:00:00Z,28.8425,-94.2433,2.0,112.3392365,5.340833268,-99999.0,'11133222,11111222,99999999' 
TABS,ioos:station:wmo:42050:1,2012-11-02T10:30:00Z,28.8425,-94.2433,2.0,129.449408,6.798889615,-99999.0,'11133222,11111222,99999999' 
TABS,ioos:station:wmo:42050:1,2012-11-02T11:00:00Z,28.8425,-94.2433,2.0,146.3288296,8.351011915,-99999.0,'11133222,11111222,99999999' 
TABS,ioos:station:wmo:42050:1,2012-11-02T11:30:00Z,28.8425,-94.2433,2.0,141.5004435,8.369384685,-99999.0,'11133222,11111222,99999999' 
TABS,ioos:station:wmo:42050:1,2012-11-02T12:00:00Z,28.8425,-94.2433,2.0,148.7529332,8.328073006,-99999.0,'11133222,11111222,99999999' 
TABS,ioos:station:wmo:42050:1,2012-11-02T12:30:00Z,28.8425,-94.2433,2.0,161.2341767,8.765979694,-99999.0,'11133222,11111222,99999999' 
TABS,ioos:station:wmo:42050:1,2012-11-02T13:00:00Z,28.8425,-94.2433,2.0,166.8920506,10.62688101,-99999.0,'11111222,11111222,99999999' 
TABS,ioos:station:wmo:42050:1,2012-11-02T13:30:00Z,28.8425,-94.2433,2.0,154.3148021,8.444388669,-99999.0,'11133222,11111222,99999999' 
TABS,ioos:station:wmo:42050:1,2012-11-02T14:00:00Z,28.8425,-94.2433,2.0,172.6233372,9.891865345,-99999.0,'11133222,11111222,99999999' 
TABS,ioos:station:wmo:42050:1,2012-11-02T14:30:00Z,28.8425,-94.2433,2.0,181.1070465,11.90222248,-99999.0,'11111222,11111222,99999999' 
TABS,ioos:station:wmo:42050:1,2012-11-02T15:00:00Z,28.8425,-94.2433,2.0,188.1778994,11.81010161,-99999.0,'11111222,11111222,99999999' 
TABS,ioos:station:wmo:42050:1,2012-11-02T15:30:00Z,28.8425,-94.2433,2.0,202.982471,8.016314615,-99999.0,'11133222,11111222,99999999' 
TABS,ioos:station:wmo:42050:1,2012-11-02T16:00:00Z,28.8425,-94.2433,2.0,208.2547815,4.245903908,-99999.0,'11133222,11111222,99999999' 
TABS,ioos:station:wmo:42050:1,2012-11-02T16:30:00Z,28.8425,-94.2433,2.0,217.5281426,3.480229877,-99999.0,'11133222,11111222,99999999' 
TABS,ioos:station:wmo:42050:1,2012-11-02T17:00:00Z,28.8425,-94.2433,2.0,293.643593,2.368839378,-99999.0,'11133222,11111222,99999999' 
TABS,ioos:station:wmo:42050:1,2012-11-02T17:30:00Z,28.8425,-94.2433,2.0,291.2396818,2.65,-99999.0,'11133222,11111222,99999999' 
TABS,ioos:station:wmo:42050:1,2012-11-02T18:00:00Z,28.8425,-94.2433,2.0,328.8756485,4.275476582,-99999.0,'11133222,11111222,99999999' 
TABS,ioos:station:wmo:42050:1,2012-11-02T18:30:00Z,28.8425,-94.2433,2.0,332.5965527,4.888568298,-99999.0,'11133222,11111222,99999999' 
TABS,ioos:station:wmo:42050:1,2012-11-02T19:00:00Z,28.8425,-94.2433,2.0,345.5776344,8.632039157,-99999.0,'11133222,11111222,99999999' 
TABS,ioos:station:wmo:42050:1,2012-11-02T19:30:00Z,28.8425,-94.2433,2.0,352.853106,9.644941679,-99999.0,'11133222,11111222,99999999' 
TABS,ioos:station:wmo:42050:1,2012-11-02T20:00:00Z,28.8425,-94.2433,2.0,344.9028215,9.559968619,-99999.0,'11133222,11111222,99999999' 
TABS,ioos:station:wmo:42050:1,2012-11-02T20:30:00Z,28.8425,-94.2433,2.0,344.9098372,10.67822551,-99999.0,'11111222,11111222,99999999' 
TABS,ioos:station:wmo:42050:1,2012-11-02T21:00:00Z,28.8425,-94.2433,2.0,336.9960607,9.288670518,-99999.0,'11133222,11111222,99999999' 
TABS,ioos:station:wmo:42050:1,2012-11-02T21:30:00Z,28.8425,-94.2433,2.0,330.8861649,9.351545327,-99999.0,'11133222,11111222,99999999' 
TABS,ioos:station:wmo:42050:1,2012-11-02T22:00:00Z,28.8425,-94.2433,2.0,326.4403649,9.768295655,-99999.0,'11133222,11111222,99999999' 
TABS,ioos:station:wmo:42050:1,2012-11-02T22:30:00Z,28.8425,-94.2433,2.0,317.3748513,8.874739433,-99999.0,'11133222,11111222,99999999' 
TABS,ioos:station:wmo:42050:1,2012-11-02T23:00:00Z,28.8425,-94.2433,2.0,315.1271693,9.581320368,-99999.0,'11133222,11111222,99999999' 
TABS,ioos:station:wmo:42050:1,2012-11-02T23:30:00Z,28.8425,-94.2433,2.0,306.361597,6.308248568,-99999.0,'11133222,11111222,99999999' 
TABS,ioos:station:wmo:42050:1,2012-11-03T00:00:00Z,28.8425,-94.2433,2.0,301.6846616,5.864000341,-99999.0,'11133222,11111222,99999999' 
TABS,ioos:station:wmo:42050:1,2012-11-03T00:30:00Z,28.8425,-94.2433,2.0,283.6343618,4.836279562,-99999.0,'11133222,11111222,99999999' 
TABS,ioos:station:wmo:42050:1,2012-11-03T01:00:00Z,28.8425,-94.2433,2.0,261.8496908,8.182640161,-99999.0,'11133222,11111222,99999999' 
TABS,ioos:station:wmo:42050:1,2012-11-03T01:30:00Z,28.8425,-94.2433,2.0,246.5891269,6.745257593,-99999.0,'11133222,11111222,99999999' 
TABS,ioos:station:wmo:42050:1,2012-11-03T02:00:00Z,28.8425,-94.2433,2.0,266.6990686,8.163540898,-99999.0,'11133222,11111222,99999999' 
TABS,ioos:station:wmo:42050:1,2012-11-03T02:30:00Z,28.8425,-94.2433,2.0,300.8420883,5.637171276,-99999.0,'11133222,11111222,99999999' 
TABS,ioos:station:wmo:42050:1,2012-11-03T03:00:00Z,28.8425,-94.2433,2.0,311.2755458,6.639615953,-99999.0,'11133222,11111222,99999999' 
TABS,ioos:station:wmo:42050:1,2012-11-03T03:30:00Z,28.8425,-94.2433,2.0,337.0975719,4.830828086,-99999.0,'11133222,11111222,99999999' 
TABS,ioos:station:wmo:42050:1,2012-11-03T04:00:00Z,28.8425,-94.2433,2.0,345.9796586,8.874378852,-99999.0,'11133222,11111222,99999999' 
TABS,ioos:station:wmo:42050:1,2012-11-03T04:30:00Z,28.8425,-94.2433,2.0,358.3017575,9.784298646,-99999.0,'11133222,11111222,99999999' 
TABS,ioos:station:wmo:42050:1,2012-11-03T05:00:00Z,28.8425,-94.2433,2.0,15.51251127,7.8146657,-99999.0,'11133222,11111222,99999999' 
TABS,ioos:station:wmo:42050:1,2012-11-03T05:30:00Z,28.8425,-94.2433,2.0,31.87402325,8.313585268,-99999.0,'11133222,11111222,99999999' 
TABS,ioos:station:wmo:42050:1,2012-11-03T06:00:00Z,28.8425,-94.2433,2.0,25.82798006,7.299130085,-99999.0,'11133222,11111222,99999999' 
TABS,ioos:station:wmo:42050:1,2012-11-03T06:30:00Z,28.8425,-94.2433,2.0,29.85129381,9.362157871,-99999.0,'11133222,11111222,99999999' 
TABS,ioos:station:wmo:42050:1,2012-11-03T07:00:00Z,28.8425,-94.2433,2.0,23.44043908,10.58339265,-99999.0,'11111222,11111222,99999999' 
TABS,ioos:station:wmo:42050:1,2012-11-03T07:30:00Z,28.8425,-94.2433,2.0,24.52389957,8.91415167,-99999.0,'11133222,11111222,99999999' 
TABS,ioos:station:wmo:42050:1,2012-11-03T08:00:00Z,28.8425,-94.2433,2.0,37.58147252,5.47642219,-99999.0,'11133222,11111222,99999999' 
TABS,ioos:station:wmo:42050:1,2012-11-03T08:30:00Z,28.8425,-94.2433,2.0,11.08275401,6.919031724,-99999.0,'11133222,11111222,99999999' 
TABS,ioos:station:wmo:42050:1,2012-11-03T09:00:00Z,28.8425,-94.2433,2.0,20.34426414,5.695261188,-99999.0,'11133222,11111222,99999999' 
TABS,ioos:station:wmo:42050:1,2012-11-03T09:30:00Z,28.8425,-94.2433,2.0,10.19617486,5.649212334,-99999.0,'11133222,11111222,99999999' 
TABS,ioos:station:wmo:42050:1,2012-11-03T10:00:00Z,28.8425,-94.2433,2.0,350.6570693,4.742921041,-99999.0,'11133222,11111222,99999999' 
TABS,ioos:station:wmo:42050:1,2012-11-03T10:30:00Z,28.8425,-94.2433,2.0,23.39201557,4.281927136,-99999.0,'11133222,11111222,99999999' 
TABS,ioos:station:wmo:42050:1,2012-11-03T11:00:00Z,28.8425,-94.2433,2.0,67.81910095,6.727889714,-99999.0,'11133222,11111222,99999999' 
TABS,ioos:station:wmo:42050:1,2012-11-03T11:30:00Z,28.8425,-94.2433,2.0,65.57495583,5.030188863,-99999.0,'11133222,11111222,99999999' 
TABS,ioos:station:wmo:42050:1,2012-11-03T12:00:00Z,28.8425,-94.2433,2.0,123.5682904,6.528836037,-99999.0,'11133222,11111222,99999999' 
TABS,ioos:station:wmo:42050:1,2012-11-03T12:30:00Z,28.8425,-94.2433,2.0,130.4859169,8.086099183,-99999.0,'11133222,11111222,99999999' 
TABS,ioos:station:wmo:42050:1,2012-11-03T13:00:00Z,28.8425,-94.2433,2.0,128.7978127,6.479668201,-99999.0,'11133222,11111222,99999999' 
TABS,ioos:station:wmo:42050:1,2012-11-03T13:30:00Z,28.8425,-94.2433,2.0,151.0038978,8.540521061,-99999.0,'11133222,11111222,99999999' 
TABS,ioos:station:wmo:42050:1,2012-11-03T14:00:00Z,28.8425,-94.2433,2.0,156.0040355,6.983552105,-99999.0,'11133222,11111222,99999999' 
TABS,ioos:station:wmo:42050:1,2012-11-03T14:30:00Z,28.8425,-94.2433,2.0,175.0443522,6.945962856,-99999.0,'11133222,11111222,99999999' 
TABS,ioos:station:wmo:42050:1,2012-11-03T15:00:00Z,28.8425,-94.2433,2.0,192.276572,10.11122643,-99999.0,'11111222,11111222,99999999' 
TABS,ioos:station:wmo:42050:1,2012-11-03T15:30:00Z,28.8425,-94.2433,2.0,193.8010763,10.64740344,-99999.0,'11111222,11111222,99999999' 
TABS,ioos:station:wmo:42050:1,2012-11-03T16:00:00Z,28.8425,-94.2433,2.0,207.1017636,10.97510364,-99999.0,'11111222,11111222,99999999' 
TABS,ioos:station:wmo:42050:1,2012-11-03T16:30:00Z,28.8425,-94.2433,2.0,201.421013,10.07605081,-99999.0,'11111222,11111222,99999999' 
TABS,ioos:station:wmo:42050:1,2012-11-03T17:00:00Z,28.8425,-94.2433,2.0,204.088073,6.933815688,-99999.0,'11133222,11111222,99999999' 
TABS,ioos:station:wmo:42050:1,2012-11-03T17:30:00Z,28.8425,-94.2433,2.0,251.7068459,2.548803641,-99999.0,'11133222,11111222,99999999' 
TABS,ioos:station:wmo:42050:1,2012-11-03T18:00:00Z,28.8425,-94.2433,2.0,267.0153039,4.225730706,-99999.0,'11133222,11111222,99999999' 
TABS,ioos:station:wmo:42050:1,2012-11-03T18:30:00Z,28.8425,-94.2433,2.0,288.6016415,4.357636974,-99999.0,'11133222,11111222,99999999' 
TABS,ioos:station:wmo:42050:1,2012-11-03T19:00:00Z,28.8425,-94.2433,2.0,275.5406345,4.350321827,-99999.0,'11133222,11111222,99999999' 
TABS,ioos:station:wmo:42050:1,2012-11-03T19:30:00Z,28.8425,-94.2433,2.0,309.408771,4.063988189,-99999.0,'11133222,11111222,99999999' 
TABS,ioos:station:wmo:42050:1,2012-11-03T20:00:00Z,28.8425,-94.2433,2.0,312.2883386,5.380037175,-99999.0,'11133222,11111222,99999999' 
TABS,ioos:station:wmo:42050:1,2012-11-03T20:30:00Z,28.8425,-94.2433,2.0,298.5142264,4.734258126,-99999.0,'11133222,11111222,99999999' 
TABS,ioos:station:wmo:42050:1,2012-11-03T21:00:00Z,28.8425,-94.2433,2.0,320.7746281,5.692811256,-99999.0,'11133222,11111222,99999999' 
TABS,ioos:station:wmo:42050:1,2012-11-03T21:30:00Z,28.8425,-94.2433,2.0,309.4502666,5.775854915,-99999.0,'11133222,11111222,99999999' 
TABS,ioos:station:wmo:42050:1,2012-11-03T22:00:00Z,28.8425,-94.2433,2.0,328.3228838,5.370037244,-99999.0,'11133222,11111222,99999999' 
TABS,ioos:station:wmo:42050:1,2012-11-03T22:30:00Z,28.8425,-94.2433,2.0,326.5837072,5.810550748,-99999.0,'11133222,11111222,99999999' 
TABS,ioos:station:wmo:42050:1,2012-11-03T23:00:00Z,28.8425,-94.2433,2.0,318.1277179,5.573230661,-99999.0,'11133222,11111222,99999999' 
TABS,ioos:station:wmo:42050:1,2012-11-03T23:30:00Z,28.8425,-94.2433,2.0,326.0448295,5.388970217,-99999.0,'11133222,11111222,99999999' 
TABS,ioos:station:wmo:42050:1,2012-11-04T00:00:00Z,28.8425,-94.2433,2.0,311.3918553,3.932238548,-99999.0,'11133222,11111222,99999999' 
TABS,ioos:station:wmo:42050:1,2012-11-04T00:30:00Z,28.8425,-94.2433,2.0,342.3722323,3.368159735,-99999.0,'11133222,11111222,99999999' 
TABS,ioos:station:wmo:42050:1,2012-11-04T01:00:00Z,28.8425,-94.2433,2.0,319.4476901,3.829908615,-99999.0,'11133222,11111222,99999999' 
TABS,ioos:station:wmo:42050:1,2012-11-04T01:30:00Z,28.8425,-94.2433,2.0,272.2827351,2.762191159,-99999.0,'11133222,11111222,99999999' 
TABS,ioos:station:wmo:42050:1,2012-11-04T02:00:00Z,28.8425,-94.2433,2.0,107.560231,0.828613299,-99999.0,'11133222,11111222,99999999' 
TABS,ioos:station:wmo:42050:1,2012-11-04T02:30:00Z,28.8425,-94.2433,2.0,179.6797055,1.790027933,-99999.0,'11133222,11111222,99999999' 
TABS,ioos:station:wmo:42050:1,2012-11-04T03:00:00Z,28.8425,-94.2433,2.0,147.5893249,4.347159992,-99999.0,'11133222,11111222,99999999' 
TABS,ioos:station:wmo:42050:1,2012-11-04T03:30:00Z,28.8425,-94.2433,2.0,163.5744329,7.214429984,-99999.0,'11133222,11111222,99999999' 
TABS,ioos:station:wmo:42050:1,2012-11-04T04:00:00Z,28.8425,-94.2433,2.0,169.753155,5.284278569,-99999.0,'11133222,11111222,99999999' 
TABS,ioos:station:wmo:42050:1,2012-11-04T04:30:00Z,28.8425,-94.2433,2.0,211.853372,3.202264824,-99999.0,'11133222,11111222,99999999' 
TABS,ioos:station:wmo:42050:1,2012-11-04T05:00:00Z,28.8425,-94.2433,2.0,164.5049772,4.192374029,-99999.0,'11133222,11111222,99999999' 
TABS,ioos:station:wmo:42050:1,2012-11-04T05:30:00Z,28.8425,-94.2433,2.0,205.5294278,3.712478956,-99999.0,'11133222,11111222,99999999' 
TABS,ioos:station:wmo:42050:1,2012-11-04T06:00:00Z,28.8425,-94.2433,2.0,192.7417884,2.040245083,-99999.0,'11133222,11111222,99999999' 
TABS,ioos:station:wmo:42050:1,2012-11-04T06:30:00Z,28.8425,-94.2433,2.0,240.2020575,2.696516271,-99999.0,'11133222,11111222,99999999' 
TABS,ioos:station:wmo:42050:1,2012-11-04T07:00:00Z,28.8425,-94.2433,2.0,186.4627602,2.57637342,-99999.0,'11133222,11111222,99999999' 
TABS,ioos:station:wmo:42050:1,2012-11-04T07:30:00Z,28.8425,-94.2433,2.0,140.7250573,2.764434843,-99999.0,'11133222,11111222,99999999' 
TABS,ioos:station:wmo:42050:1,2012-11-04T08:00:00Z,28.8425,-94.2433,2.0,194.8037351,2.896135356,-99999.0,'11133222,11111222,99999999' 
TABS,ioos:station:wmo:42050:1,2012-11-04T08:30:00Z,28.8425,-94.2433,2.0,165.7683645,1.423692383,-99999.0,'11133222,11111222,99999999' 
TABS,ioos:station:wmo:42050:1,2012-11-04T09:00:00Z,28.8425,-94.2433,2.0,171.4690439,2.629087294,-99999.0,'11133222,11111222,99999999' 
TABS,ioos:station:wmo:42050:1,2012-11-04T09:30:00Z,28.8425,-94.2433,2.0,167.4300271,4.549032864,-99999.0,'11133222,11111222,99999999' 
TABS,ioos:station:wmo:42050:1,2012-11-04T10:00:00Z,28.8425,-94.2433,2.0,159.3386307,3.826081546,-99999.0,'11133222,11111222,99999999' 
TABS,ioos:station:wmo:42050:1,2012-11-04T10:30:00Z,28.8425,-94.2433,2.0,180.5410279,7.410330627,-99999.0,'11133222,11111222,99999999' 
TABS,ioos:station:wmo:42050:1,2012-11-04T11:00:00Z,28.8425,-94.2433,2.0,160.5742797,4.389897493,-99999.0,'11133222,11111222,99999999' 
TABS,ioos:station:wmo:42050:1,2012-11-04T11:30:00Z,28.8425,-94.2433,2.0,163.2557771,8.573505701,-99999.0,'11133222,11111222,99999999' 
TABS,ioos:station:wmo:42050:1,2012-11-04T12:00:00Z,28.8425,-94.2433,2.0,171.3953281,9.223816997,-99999.0,'11133222,11111222,99999999' 
TABS,ioos:station:wmo:42050:1,2012-11-04T12:30:00Z,28.8425,-94.2433,2.0,184.1193976,9.6048165,-99999.0,'11133222,11111222,99999999' 
TABS,ioos:station:wmo:42050:1,2012-11-04T13:00:00Z,28.8425,-94.2433,2.0,181.575304,10.18384996,-99999.0,'11111222,11111222,99999999' 
TABS,ioos:station:wmo:42050:1,2012-11-04T13:30:00Z,28.8425,-94.2433,2.0,187.8134551,13.82839109,-99999.0,'11111222,11111222,99999999' 
TABS,ioos:station:wmo:42050:1,2012-11-04T14:00:00Z,28.8425,-94.2433,2.0,188.8828454,14.63554577,-99999.0,'11111222,11111222,99999999' 
TABS,ioos:station:wmo:42050:1,2012-11-04T14:30:00Z,28.8425,-94.2433,2.0,189.6042426,11.92718324,-99999.0,'11111222,11111222,99999999' 
TABS,ioos:station:wmo:42050:1,2012-11-04T15:00:00Z,28.8425,-94.2433,2.0,192.2119146,12.95311546,-99999.0,'11111222,11111222,99999999' 
TABS,ioos:station:wmo:42050:1,2012-11-04T15:30:00Z,28.8425,-94.2433,2.0,191.1136382,12.03571768,-99999.0,'11111222,11111222,99999999' 
TABS,ioos:station:wmo:42050:1,2012-11-04T16:00:00Z,28.8425,-94.2433,2.0,186.2217338,8.027284721,-99999.0,'11133222,11111222,99999999' 
TABS,ioos:station:wmo:42050:1,2012-11-04T16:30:00Z,28.8425,-94.2433,2.0,189.8408983,4.973178058,-99999.0,'11133222,11111222,99999999' 
TABS,ioos:station:wmo:42050:1,2012-11-04T17:00:00Z,28.8425,-94.2433,2.0,183.7677184,5.78249946,-99999.0,'11133222,11111222,99999999' 
TABS,ioos:station:wmo:42050:1,2012-11-04T17:30:00Z,28.8425,-94.2433,2.0,164.6768552,5.184293587,-99999.0,'11133222,11111222,99999999' 
TABS,ioos:station:wmo:42050:1,2012-11-04T18:00:00Z,28.8425,-94.2433,2.0,175.5560311,8.776383082,-99999.0,'11133222,11111222,99999999' 
TABS,ioos:station:wmo:42050:1,2012-11-04T18:30:00Z,28.8425,-94.2433,2.0,211.518826,6.369756667,-99999.0,'11133222,11111222,99999999' 
TABS,ioos:station:wmo:42050:1,2012-11-04T19:00:00Z,28.8425,-94.2433,2.0,218.1569269,7.299842464,-99999.0,'11133222,11111222,99999999' 